LRIA Weather Reports


time (UTC)temp
C
wind
direction
speed
KPH
gust
KPH
rain 1hr
cm
rain 24hr
cm
rain mn
cm
humidity
%
barometer
mb
20260507040323 12 100 14.5 0.0 0.00 0.00 0.00 67 1015.0
20260507034820 11 90 14.5 0.0 0.00 0.00 0.00 67 1015.0
20260507033322 11 90 14.5 0.0 0.00 0.00 0.00 67 1015.0
20260507031823 10 100 12.9 0.0 0.00 0.00 0.00 71 1015.0
20260507030323 10 100 12.9 0.0 0.00 0.00 0.00 71 1015.0
20260507024823 10 90 12.9 0.0 0.00 0.00 0.00 71 1015.0
20260507023323 10 90 12.9 0.0 0.00 0.00 0.00 71 1015.0
20260507021823 11 90 12.9 0.0 0.00 0.00 0.00 67 1014.0
20260507020323 11 90 12.9 0.0 0.00 0.00 0.00 67 1014.0
20260507014823 12 110 14.5 0.0 0.00 0.00 0.00 55 1014.0
20260507013322 12 110 14.5 0.0 0.00 0.00 0.00 55 1014.0
20260507011823 13 130 14.5 0.0 0.00 0.00 0.00 48 1014.0
20260507010323 13 130 14.5 0.0 0.00 0.00 0.00 48 1014.0
20260507004823 13 140 14.5 0.0 0.00 0.00 0.00 48 1015.0
20260507003323 13 140 14.5 0.0 0.00 0.00 0.00 48 1015.0
20260507001823 13 150 12.9 0.0 0.00 0.00 0.00 48 1015.0
20260507000323 13 150 12.9 0.0 0.00 0.00 0.00 48 1015.0
20260506234823 15 160 12.9 0.0 0.00 0.00 0.00 45 1015.0
20260506233323 15 160 12.9 0.0 0.00 0.00 0.00 45 1015.0
20260506231824 17 160 20.9 0.0 0.00 0.00 0.00 42 1015.0
20260506230323 17 160 20.9 0.0 0.00 0.00 0.00 42 1015.0
20260506224819 16 170 14.5 0.0 0.00 0.00 0.00 48 1014.0
20260506223323 16 170 14.5 0.0 0.00 0.00 0.00 48 1014.0
20260506221823 17 180 14.5 0.0 0.00 0.00 0.00 49 1015.0
20260506220322 17 180 14.5 0.0 0.00 0.00 0.00 49 1015.0
20260506214839 17 180 16.1 0.0 0.00 0.00 0.00 49 1014.0
20260506213323 17 180 16.1 0.0 0.00 0.00 0.00 49 1014.0
20260506211820 17 180 17.7 0.0 0.00 0.00 0.00 46 1014.0
20260506210322 17 180 17.7 0.0 0.00 0.00 0.00 46 1014.0
20260506204824 17 180 20.9 0.0 0.00 0.00 0.00 46 1014.0
20260506203323 17 180 20.9 0.0 0.00 0.00 0.00 46 1014.0
20260506201820 18 170 16.1 0.0 0.00 0.00 0.00 43 1014.0
20260506200323 18 170 16.1 0.0 0.00 0.00 0.00 43 1014.0
20260506194842 18 160 16.1 0.0 0.00 0.00 0.00 43 1014.0
20260506193347 18 160 16.1 0.0 0.00 0.00 0.00 43 1014.0
20260506191824 20 160 16.1 0.0 0.00 0.00 0.00 40 1014.0
20260506190323 20 160 16.1 0.0 0.00 0.00 0.00 40 1014.0
20260506184828 21 180 20.9 0.0 0.00 0.00 0.00 38 1013.0
20260506183323 21 180 20.9 0.0 0.00 0.00 0.00 38 1013.0
20260506181823 22 190 17.7 0.0 0.00 0.00 0.00 36 1013.0
20260506180323 22 190 17.7 0.0 0.00 0.00 0.00 36 1013.0
20260506174823 22 190 16.1 0.0 0.00 0.00 0.00 36 1013.0
20260506173323 22 190 16.1 0.0 0.00 0.00 0.00 36 1013.0
20260506171823 22 180 14.5 0.0 0.00 0.00 0.00 31 1012.0
20260506170323 22 180 14.5 0.0 0.00 0.00 0.00 31 1012.0
20260506164823 23 170 14.5 0.0 0.00 0.00 0.00 31 1012.0
20260506163323 23 170 14.5 0.0 0.00 0.00 0.00 31 1012.0
20260506161823 23 150 22.5 0.0 0.00 0.00 0.00 29 1012.0
20260506160323 23 150 22.5 0.0 0.00 0.00 0.00 29 1012.0
20260506154824 25 160 20.9 0.0 0.00 0.00 0.00 30 1012.0
20260506153323 25 160 20.9 0.0 0.00 0.00 0.00 30 1012.0
20260506151823 26 160 14.5 0.0 0.00 0.00 0.00 30 1012.0
20260506150329 26 160 14.5 0.0 0.00 0.00 0.00 30 1012.0
20260506144823 26 190 12.9 0.0 0.00 0.00 0.00 28 1012.0
20260506143335 26 190 12.9 0.0 0.00 0.00 0.00 28 1012.0
20260506141823 27 12.9 0.0 0.00 0.00 0.00 30 1012.0
20260506140440 27 12.9 0.0 0.00 0.00 0.00 30 1012.0
20260506134848 26 140 17.7 0.0 0.00 0.00 0.00 28 1012.0
20260506133323 26 140 17.7 0.0 0.00 0.00 0.00 28 1012.0
20260506131823 27 170 14.5 0.0 0.00 0.00 0.00 26 1012.0
20260506130332 27 170 14.5 0.0 0.00 0.00 0.00 26 1012.0
20260506124824 27 180 11.3 0.0 0.00 0.00 0.00 26 1013.0
20260506123323 27 180 11.3 0.0 0.00 0.00 0.00 26 1013.0
20260506121823 26 9.7 0.0 0.00 0.00 0.00 28 1013.0
20260506120323 26 9.7 0.0 0.00 0.00 0.00 28 1013.0
20260506114823 26 200 11.3 0.0 0.00 0.00 0.00 26 1013.0
20260506113323 26 200 11.3 0.0 0.00 0.00 0.00 26 1013.0
20260506111823 26 150 14.5 0.0 0.00 0.00 0.00 26 1013.0
20260506110323 26 150 14.5 0.0 0.00 0.00 0.00 26 1013.0
20260506104823 25 140 12.9 0.0 0.00 0.00 0.00 30 1013.0
20260506103323 25 140 12.9 0.0 0.00 0.00 0.00 30 1013.0
20260506101823 25 150 11.3 0.0 0.00 0.00 0.00 32 1014.0
20260506100323 25 150 11.3 0.0 0.00 0.00 0.00 32 1014.0
20260506094823 23 160 14.5 0.0 0.00 0.00 0.00 29 1014.0
20260506093323 23 160 14.5 0.0 0.00 0.00 0.00 29 1014.0
20260506091823 23 180 11.3 0.0 0.00 0.00 0.00 34 1014.0
20260506090323 23 180 11.3 0.0 0.00 0.00 0.00 34 1014.0
20260506084823 22 130 8.0 0.0 0.00 0.00 0.00 36 1014.0
20260506083323 22 130 8.0 0.0 0.00 0.00 0.00 36 1014.0
20260506081820 21 130 8.0 0.0 0.00 0.00 0.00 40 1014.0
20260506080323 21 130 8.0 0.0 0.00 0.00 0.00 40 1014.0
20260506073323 18 120 9.7 0.0 0.00 0.00 0.00 46 1014.0
20260506071823 17 130 9.7 0.0 0.00 0.00 0.00 49 1014.0
20260506070323 17 130 9.7 0.0 0.00 0.00 0.00 49 1014.0
20260506061823 15 120 14.5 0.0 0.00 0.00 0.00 51 1014.0
20260506060325 15 120 14.5 0.0 0.00 0.00 0.00 51 1014.0
20260506050337 12 110 14.5 0.0 0.00 0.00 0.00 55 1014.0
20260506044839 12 110 12.9 0.0 0.00 0.00 0.00 58 1014.0
20260506043327 12 110 12.9 0.0 0.00 0.00 0.00 58 1014.0
20260506041824 11 100 12.9 0.0 0.00 0.00 0.00 62 1014.0